Location: Te Maire Creek
(41.1333°S, 175.9167°E)
Time: 21:40:06
(UTC+00:00)

SL-16 R/B - Pass Details

Date: 19 May 2024
Orbit: 985 x 1007 km, 99.7° (Epoch: 22 June)

Event Time Altitude Azimuth Distance (km) Brightness Sun altitude
Rises 16:46:27 0° 172° (S) 3,737 5.6 -29.0°
Reaches altitude 10° 16:49:03 10° 179° (S) 2,785 4.9 -28.6°
Enters shadow 16:51:08 21° 189° (S) 2,090 4.1 -28.2°
